[Date Prev][Date Next][Thread Prev][Thread Next] - [Date Index][Thread Index][Author Index]

2 Line ISS Keps 12-6



ISS
1 25544U 98067A   05339.80965186  .00016426  00000-0  12308-3 0  8875
2 25544 051.6438 101.3185 0009215 007.9581 128.4962 15.72761241402694
----
Via the sarex mailing list at AMSAT.ORG courtesy of AMSAT-NA.
To unsubscribe, send "unsubscribe sarex" to Majordomo@amsat.org



AMSAT Top AMSAT Home